Terug naar catalogus

MONITOR-2

ActiefWetenschapSSO
NORAD 57184·PAYLOAD·🇷🇺 Russia
Deze satellietnaam is nog niet bevestigd door officiële bronnen.

Gelanceerd Jun 27, 2023 vanaf Vostochny Cosmodrome

Loading…

Volgende Passages (komende 24 uur)

TLE

VersSource: Space-Track

Epoch: Sep 14, 2026, 14:56 UTC

1 57184U 23091U   26257.62277849  .00003798  00000-0  18140-3 0  9991
2 57184  97.4976 315.3258 0011656 154.0856 206.0964 15.19598346177535

Volg MONITOR-2 in realtime met AllMySat

Download on the App Store